Location: Woodstock
(35.2731°N, 89.9823°W)
Time: 18:28:52
(UTC+00:00)

Vanguard 3 - Pass Details

Date: 30 May 2025
Orbit: 508 x 3215 km, 33.3° (Epoch: 14 June)

Event Time Altitude Azimuth Distance (km) Brightness Sun altitude
Rises 10:57:22 0° 279° (W) 4,721 10.6 1.0°
Reaches altitude 10° 11:01:18 10° 275° (W) 3,283 9.7 1.8°
Maximum altitude 11:08:29 49° 203° (SSW) 1,083 7.6 3.1°
Drops below altitude 10° 11:12:56 10° 128° (SE) 2,046 9.7 3.9°
Sets 11:14:53 0° 121° (ESE) 2,803 10.5 4.3°
